Time,TemperatureF,DewpointF,PressureIn,WindDirection,WindDirectionDegrees,WindSpeedMPH,WindSpeedGustMPH,Humidity,HourlyPrecipIn,Conditions,Clouds,dailyrainin,SoftwareType,DateUTC
2013-10-18 00:06:00,78.0,69.0,29.88,NNE,32,4.0,-999.0,74,-99.99,,,0.00,weatherlink.com 1.10,2013-10-18 04:06:00,
2013-10-18 00:21:00,77.9,69.0,29.88,NNE,32,0.0,-999.0,74,-99.99,,,0.00,weatherlink.com 1.10,2013-10-18 04:21:00,
2013-10-18 00:36:00,77.9,69.0,29.88,NNE,32,0.0,-999.0,74,-99.99,,,0.00,weatherlink.com 1.10,2013-10-18 04:36:00,
2013-10-18 00:51:00,77.6,69.0,29.88,NNE,32,0.0,-999.0,74,-99.99,,,0.00,weatherlink.com 1.10,2013-10-18 04:51:00,
2013-10-18 01:06:00,77.6,69.0,29.88,NNE,32,0.0,-999.0,74,-99.99,,,0.00,weatherlink.com 1.10,2013-10-18 05:06:00,
2013-10-18 01:21:00,77.7,69.0,29.87,NE,34,5.0,-999.0,74,-99.99,,,0.00,weatherlink.com 1.10,2013-10-18 05:21:00,
2013-10-18 01:36:00,77.8,69.0,29.87,NE,38,4.0,-999.0,74,-99.99,,,0.00,weatherlink.com 1.10,2013-10-18 05:36:00,
2013-10-18 01:51:00,77.8,69.0,29.86,NE,44,7.0,-999.0,74,-99.99,,,0.00,weatherlink.com 1.10,2013-10-18 05:51:00,
2013-10-18 02:06:00,77.5,69.0,29.87,NE,53,6.0,-999.0,74,-99.99,,,0.00,weatherlink.com 1.10,2013-10-18 06:06:00,
2013-10-18 02:21:00,77.3,68.0,29.87,ENE,57,3.0,-999.0,74,-99.99,,,0.00,weatherlink.com 1.10,2013-10-18 06:21:00,
2013-10-18 02:36:00,77.1,69.0,29.86,ENE,57,3.0,-999.0,75,-99.99,,,0.00,weatherlink.com 1.10,2013-10-18 06:36:00,
2013-10-18 02:51:00,76.9,68.0,29.86,ENE,57,5.0,-999.0,75,-99.99,,,0.00,weatherlink.com 1.10,2013-10-18 06:51:00,
2013-10-18 03:06:00,76.5,68.0,29.86,ENE,59,0.0,-999.0,75,-99.99,,,0.00,weatherlink.com 1.10,2013-10-18 07:06:00,
2013-10-18 03:21:00,76.1,68.0,29.86,ENE,60,0.0,-999.0,75,-99.99,,,0.00,weatherlink.com 1.10,2013-10-18 07:21:00,
2013-10-18 03:36:00,76.0,68.0,29.86,ENE,60,0.0,-999.0,75,-99.99,,,0.00,weatherlink.com 1.10,2013-10-18 07:36:00,
2013-10-18 03:52:00,76.2,68.0,29.86,ENE,60,0.0,-999.0,75,-99.99,,,0.00,weatherlink.com 1.10,2013-10-18 07:52:00,
2013-10-18 04:06:00,75.8,67.0,29.86,ENE,60,0.0,-999.0,74,-99.99,,,0.00,weatherlink.com 1.10,2013-10-18 08:06:00,
2013-10-18 04:21:00,75.4,67.0,29.86,ENE,60,0.0,-999.0,75,-99.99,,,0.00,weatherlink.com 1.10,2013-10-18 08:21:00,
2013-10-18 04:36:00,75.1,67.0,29.86,ENE,60,0.0,-999.0,75,-99.99,,,0.00,weatherlink.com 1.10,2013-10-18 08:36:00,
2013-10-18 04:52:00,75.0,67.0,29.86,ENE,60,0.0,-999.0,75,-99.99,,,0.00,weatherlink.com 1.10,2013-10-18 08:52:00,
2013-10-18 05:07:00,74.8,67.0,29.86,ENE,60,0.0,-999.0,76,-99.99,,,0.00,weatherlink.com 1.10,2013-10-18 09:07:00,
2013-10-18 05:22:00,74.6,67.0,29.86,ENE,60,0.0,-999.0,76,-99.99,,,0.00,weatherlink.com 1.10,2013-10-18 09:22:00,
2013-10-18 05:37:00,74.3,66.0,29.87,ENE,60,0.0,-999.0,76,-99.99,,,0.00,weatherlink.com 1.10,2013-10-18 09:37:00,
2013-10-18 05:52:00,74.0,66.0,29.87,ENE,60,0.0,-999.0,76,-99.99,,,0.00,weatherlink.com 1.10,2013-10-18 09:52:00,
2013-10-18 06:07:00,73.8,66.0,29.87,ENE,60,0.0,-999.0,77,-99.99,,,0.00,weatherlink.com 1.10,2013-10-18 10:07:00,
2013-10-18 06:22:00,73.8,66.0,29.88,ENE,60,0.0,-999.0,77,-99.99,,,0.00,weatherlink.com 1.10,2013-10-18 10:22:00,
2013-10-18 06:37:00,73.7,66.0,29.88,ENE,60,0.0,-999.0,77,-99.99,,,0.00,weatherlink.com 1.10,2013-10-18 10:37:00,
2013-10-18 06:52:00,73.4,66.0,29.88,ENE,60,0.0,-999.0,77,-99.99,,,0.00,weatherlink.com 1.10,2013-10-18 10:52:00,
2013-10-18 07:07:00,73.2,66.0,29.89,ENE,60,0.0,-999.0,77,-99.99,,,0.00,weatherlink.com 1.10,2013-10-18 11:07:00,
2013-10-18 07:22:00,73.2,66.0,29.89,ENE,60,0.0,-999.0,77,-99.99,,,0.00,weatherlink.com 1.10,2013-10-18 11:22:00,
2013-10-18 07:37:00,73.0,65.0,29.89,ENE,61,0.0,-999.0,77,-99.99,,,0.00,weatherlink.com 1.10,2013-10-18 11:37:00,
2013-10-18 07:52:00,73.0,65.0,29.90,ENE,61,0.0,-999.0,77,-99.99,,,0.00,weatherlink.com 1.10,2013-10-18 11:52:00,
2013-10-18 08:07:00,73.0,65.0,29.90,ENE,60,0.0,-999.0,77,-99.99,,,0.00,weatherlink.com 1.10,2013-10-18 12:07:00,
2013-10-18 08:22:00,73.2,66.0,29.91,ENE,60,0.0,-999.0,77,-99.99,,,0.00,weatherlink.com 1.10,2013-10-18 12:22:00,
2013-10-18 08:37:00,73.6,66.0,29.91,ENE,61,0.0,-999.0,77,-99.99,,,0.00,weatherlink.com 1.10,2013-10-18 12:37:00,
2013-10-18 08:52:00,74.7,67.0,29.92,ENE,61,0.0,-999.0,77,-99.99,,,0.00,weatherlink.com 1.10,2013-10-18 12:52:00,
2013-10-18 09:07:00,75.8,68.0,29.92,ENE,63,0.0,-999.0,76,-99.99,,,0.00,weatherlink.com 1.10,2013-10-18 13:07:00,
2013-10-18 09:22:00,77.2,69.0,29.93,ENE,63,0.0,-999.0,75,-99.99,,,0.00,weatherlink.com 1.10,2013-10-18 13:22:00,
2013-10-18 09:37:00,78.6,70.0,29.93,ENE,63,0.0,-999.0,74,-99.99,,,0.00,weatherlink.com 1.10,2013-10-18 13:37:00,
2013-10-18 09:52:00,79.2,70.0,29.93,ENE,65,0.0,-999.0,73,-99.99,,,0.00,weatherlink.com 1.10,2013-10-18 13:52:00,
2013-10-18 10:07:00,79.8,70.0,29.93,ENE,65,0.0,-999.0,73,-99.99,,,0.00,weatherlink.com 1.10,2013-10-18 14:07:00,
2013-10-18 10:22:00,78.9,70.0,29.93,ENE,65,0.0,-999.0,73,-99.99,,,0.00,weatherlink.com 1.10,2013-10-18 14:22:00,
2013-10-18 10:37:00,78.6,69.0,29.93,ENE,65,0.0,-999.0,73,-99.99,,,0.00,weatherlink.com 1.10,2013-10-18 14:37:00,
2013-10-18 10:52:00,79.0,70.0,29.93,ENE,65,0.0,-999.0,73,-99.99,,,0.00,weatherlink.com 1.10,2013-10-18 14:52:00,
2013-10-18 11:07:00,79.6,70.0,29.93,ENE,65,5.0,-999.0,73,-99.99,,,0.00,weatherlink.com 1.10,2013-10-18 15:07:00,
2013-10-18 11:22:00,79.7,70.0,29.93,SE,139,5.0,-999.0,73,-99.99,,,0.00,weatherlink.com 1.10,2013-10-18 15:22:00,
2013-10-18 11:37:00,80.3,71.0,29.94,SE,140,2.0,-999.0,72,-99.99,,,0.00,weatherlink.com 1.10,2013-10-18 15:37:00,
2013-10-18 11:52:00,80.3,71.0,29.93,South,183,6.0,-999.0,73,-99.99,,,0.00,weatherlink.com 1.10,2013-10-18 15:52:00,
2013-10-18 12:07:00,80.2,71.0,29.93,SW,227,9.0,-999.0,73,-99.99,,,0.00,weatherlink.com 1.10,2013-10-18 16:07:00,
2013-10-18 12:22:00,80.0,71.0,29.92,SW,224,9.0,-999.0,74,-99.99,,,0.00,weatherlink.com 1.10,2013-10-18 16:22:00,
2013-10-18 12:37:00,80.4,71.0,29.92,SW,231,10.0,-999.0,73,-99.99,,,0.00,weatherlink.com 1.10,2013-10-18 16:37:00,
2013-10-18 12:52:00,80.4,71.0,29.91,SW,229,10.0,-999.0,73,-99.99,,,0.00,weatherlink.com 1.10,2013-10-18 16:52:00,
2013-10-18 13:07:00,80.9,71.0,29.90,SW,225,7.0,-999.0,72,-99.99,,,0.00,weatherlink.com 1.10,2013-10-18 17:07:00,
2013-10-18 13:22:00,81.3,71.0,29.89,SW,233,9.0,-999.0,71,-99.99,,,0.00,weatherlink.com 1.10,2013-10-18 17:22:00,
2013-10-18 13:37:00,81.6,71.0,29.88,SW,227,9.0,-999.0,71,-99.99,,,0.00,weatherlink.com 1.10,2013-10-18 17:37:00,
2013-10-18 13:52:00,81.6,71.0,29.88,SW,232,9.0,-999.0,71,-99.99,,,0.00,weatherlink.com 1.10,2013-10-18 17:52:00,
2013-10-18 14:07:00,81.6,71.0,29.88,SW,233,10.0,-999.0,71,-99.99,,,0.00,weatherlink.com 1.10,2013-10-18 18:07:00,
2013-10-18 14:23:00,81.6,72.0,29.87,SW,225,9.0,-999.0,72,-99.99,,,0.00,weatherlink.com 1.10,2013-10-18 18:23:00,
2013-10-18 14:37:00,81.5,72.0,29.86,SW,228,9.0,-999.0,72,-99.99,,,0.00,weatherlink.com 1.10,2013-10-18 18:37:00,
2013-10-18 14:52:00,81.7,72.0,29.86,SW,225,9.0,-999.0,72,-99.99,,,0.00,weatherlink.com 1.10,2013-10-18 18:52:00,
2013-10-18 15:08:00,81.6,72.0,29.86,WSW,242,7.0,-999.0,72,-99.99,,,0.00,weatherlink.com 1.10,2013-10-18 19:08:00,
2013-10-18 15:23:00,81.7,72.0,29.86,SW,228,11.0,-999.0,72,-99.99,,,0.00,weatherlink.com 1.10,2013-10-18 19:23:00,
2013-10-18 15:38:00,81.8,72.0,29.86,SW,227,8.0,-999.0,72,-99.99,,,0.00,weatherlink.com 1.10,2013-10-18 19:38:00,
2013-10-18 15:53:00,81.9,72.0,29.86,SW,234,8.0,-999.0,72,-99.99,,,0.00,weatherlink.com 1.10,2013-10-18 19:53:00,
2013-10-18 16:08:00,82.0,72.0,29.86,SW,234,8.0,-999.0,72,-99.99,,,0.00,weatherlink.com 1.10,2013-10-18 20:08:00,
2013-10-18 16:23:00,81.7,72.0,29.86,SW,229,7.0,-999.0,72,-99.99,,,0.00,weatherlink.com 1.10,2013-10-18 20:23:00,
2013-10-18 16:38:00,82.3,72.0,29.85,SW,233,6.0,-999.0,72,-99.99,,,0.00,weatherlink.com 1.10,2013-10-18 20:38:00,
2013-10-18 16:53:00,82.2,72.0,29.85,WSW,249,4.0,-999.0,72,-99.99,,,0.00,weatherlink.com 1.10,2013-10-18 20:53:00,
2013-10-18 17:08:00,81.8,72.0,29.85,West,259,5.0,-999.0,72,-99.99,,,0.00,weatherlink.com 1.10,2013-10-18 21:08:00,
2013-10-18 17:23:00,81.9,72.0,29.85,WSW,254,4.0,-999.0,72,-99.99,,,0.00,weatherlink.com 1.10,2013-10-18 21:23:00,
2013-10-18 17:38:00,82.2,72.0,29.85,WSW,242,6.0,-999.0,72,-99.99,,,0.00,weatherlink.com 1.10,2013-10-18 21:38:00,
2013-10-18 17:53:00,82.1,72.0,29.85,West,263,5.0,-999.0,71,-99.99,,,0.00,weatherlink.com 1.10,2013-10-18 21:53:00,
2013-10-18 18:08:00,82.0,72.0,29.85,West,260,4.0,-999.0,71,-99.99,,,0.00,weatherlink.com 1.10,2013-10-18 22:08:00,
2013-10-18 18:23:00,82.0,72.0,29.86,WSW,251,3.0,-999.0,72,-99.99,,,0.00,weatherlink.com 1.10,2013-10-18 22:23:00,
2013-10-18 18:38:00,81.6,72.0,29.86,West,263,4.0,-999.0,72,-99.99,,,0.00,weatherlink.com 1.10,2013-10-18 22:38:00,
2013-10-18 18:53:00,81.2,71.0,29.87,West,266,0.0,-999.0,72,-99.99,,,0.00,weatherlink.com 1.10,2013-10-18 22:53:00,
2013-10-18 19:08:00,81.0,72.0,29.87,West,266,2.0,-999.0,73,-99.99,,,0.00,weatherlink.com 1.10,2013-10-18 23:08:00,
2013-10-18 19:23:00,80.8,71.0,29.87,West,274,2.0,-999.0,73,-99.99,,,0.00,weatherlink.com 1.10,2013-10-18 23:23:00,
2013-10-18 19:38:00,80.9,71.0,29.88,West,281,0.0,-999.0,72,-99.99,,,0.00,weatherlink.com 1.10,2013-10-18 23:38:00,
2013-10-18 19:53:00,80.9,71.0,29.88,WNW,288,0.0,-999.0,72,-99.99,,,0.00,weatherlink.com 1.10,2013-10-18 23:53:00,
2013-10-18 20:08:00,80.9,71.0,29.88,WNW,288,0.0,-999.0,72,-99.99,,,0.00,weatherlink.com 1.10,2013-10-19 00:08:00,
2013-10-18 20:23:00,80.9,72.0,29.88,WNW,288,1.0,-999.0,73,-99.99,,,0.00,weatherlink.com 1.10,2013-10-19 00:23:00,
2013-10-18 20:38:00,80.9,72.0,29.89,WNW,288,0.0,-999.0,73,-99.99,,,0.00,weatherlink.com 1.10,2013-10-19 00:38:00,
2013-10-18 20:53:00,80.8,71.0,29.89,WNW,290,4.0,-999.0,73,-99.99,,,0.00,weatherlink.com 1.10,2013-10-19 00:53:00,
2013-10-18 21:08:00,80.7,71.0,29.89,WNW,290,0.0,-999.0,73,-99.99,,,0.00,weatherlink.com 1.10,2013-10-19 01:08:00,
2013-10-18 21:23:00,80.7,71.0,29.89,WNW,290,0.0,-999.0,73,-99.99,,,0.00,weatherlink.com 1.10,2013-10-19 01:23:00,
2013-10-18 21:38:00,80.6,71.0,29.89,WNW,290,0.0,-999.0,73,-99.99,,,0.00,weatherlink.com 1.10,2013-10-19 01:38:00,
2013-10-18 21:53:00,80.6,71.0,29.89,WNW,290,0.0,-999.0,73,-99.99,,,0.00,weatherlink.com 1.10,2013-10-19 01:53:00,
2013-10-18 22:08:00,80.3,71.0,29.90,WNW,290,0.0,-999.0,73,-99.99,,,0.00,weatherlink.com 1.10,2013-10-19 02:08:00,
2013-10-18 22:23:00,80.3,71.0,29.90,WNW,290,0.0,-999.0,73,-99.99,,,0.00,weatherlink.com 1.10,2013-10-19 02:23:00,
2013-10-18 22:38:00,80.3,71.0,29.90,WNW,290,0.0,-999.0,73,-99.99,,,0.00,weatherlink.com 1.10,2013-10-19 02:38:00,
2013-10-18 22:53:00,80.3,71.0,29.90,NNW,346,5.0,-999.0,73,-99.99,,,0.00,weatherlink.com 1.10,2013-10-19 02:53:00,
2013-10-18 23:08:00,80.0,71.0,29.90,NNE,25,0.0,-999.0,73,-99.99,,,0.00,weatherlink.com 1.10,2013-10-19 03:08:00,
2013-10-18 23:23:00,79.3,70.0,29.90,NNE,26,0.0,-999.0,74,-99.99,,,0.00,weatherlink.com 1.10,2013-10-19 03:23:00,
2013-10-18 23:38:00,78.6,70.0,29.90,NNE,26,0.0,-999.0,74,-99.99,,,0.00,weatherlink.com 1.10,2013-10-19 03:38:00,
2013-10-18 23:53:00,78.2,69.0,29.90,NNE,26,0.0,-999.0,74,-99.99,,,0.00,weatherlink.com 1.10,2013-10-19 03:53:00,